Hyakuri current weather conditions

sailwx.info

Wind from 300 at 18 knots gusting 30

Air temperature 9.0° C
Visibility: greater than 5.4 NM
Dewpoint -10.0° C

Last reported at 2015-Jan-31 04:40 UTC.
Time now 2015-Jan-31 05:25 UTC

Location: N 36°11' E 140°25'.
View on Google Maps.

See reports from other nearby stations

  
Tides and Currents Weather Stations Pressure Air Temp Water Temp Dewpoint Dewpoint Depression Visibility Wind Speed Wind Dir Waves Ship Positions
date/time (UTC)wind fromknots sea level pressurealtimeterstation pressurevisibilityair tempwater tempwave heightnotes
2015-Jan-31 04:40 300 18 gusting 30 5.4 9.0
2015-Jan-31 04:00 270 19 5.4 9.0
2015-Jan-31 03:00 300 18 gusting 32 5.4 9.0
2015-Jan-31 02:00 300 19 gusting 30 5.4 8.0
2015-Jan-31 01:18 310 15 gusting 25 5.4 8.0
2015-Jan-31 01:00 310 13 5.4 8.0
2015-Jan-31 00:50 300 12 5.4 8.0
2015-Jan-31 00:00 5.4 5.0
2015-Jan-30 23:00 330 10 5.4 1.0
2015-Jan-30 22:13 350 7 5.4-1.0
2015-Jan-30 22:00 020 4 0.4-3.0 Fog.
2015-Jan-30 21:49 0.4-4.0 Fog.
2015-Jan-30 21:39 0.5-2.0 Mist. Shallow fog.
2015-Jan-30 21:10 010 4 0.4-3.0 Fog.
2015-Jan-30 21:07 010 4 0.4-3.0 Fog.
2015-Jan-30 21:04 010 4 0.6-3.0 Mist. Shallow fog.
2015-Jan-30 21:00 010 2 1.0-3.0 Mist. Shallow fog.
2015-Jan-30 20:00 210 3 1.1-1.0 Mist. Shallow fog.
2015-Jan-30 19:00 200 3 1.1-1.0 Mist. Shallow fog.
2015-Jan-30 18:00 220 5 1.1-1.0 Mist. Shallow fog.
2015-Jan-30 17:17 220 2 1.1-1.0 Mist. Shallow fog.
2015-Jan-30 17:06 220 2 1.1-0.0 Mist. Shallow fog.
2015-Jan-30 17:02 220 2 2.2-1.0 Mist. Shallow fog.
2015-Jan-30 17:00 220 4 2.7-0.0 Mist. Shallow fog.
2015-Jan-30 16:39 240 3 3.8-0.0 Shallow fog.
2015-Jan-30 16:00 290 3 5.4 1.0
2015-Jan-30 15:46 330 4 5.4 1.0
2015-Jan-30 15:00 310 5 5.4 2.0
2015-Jan-30 14:53 310 5 5.4 2.0
2015-Jan-30 14:21 340 6 5.4 2.0
2015-Jan-30 14:00 340 7 5.4 2.0
2015-Jan-30 13:34 340 9 5.4 3.0
2015-Jan-30 13:00 340 8 5.4 3.0
2015-Jan-30 12:00 240 8 5.4 3.0
2015-Jan-30 11:00 340 7 5.4 3.0
2015-Jan-30 10:00 340 6 5.4 3.0
2015-Jan-30 09:29 330 7 5.4 3.0
2015-Jan-30 09:00 330 8 4.3 3.0 Light rain.
2015-Jan-30 08:50 330 8 4.3 3.0 Light rain.
2015-Jan-30 08:00 020 12 3.8 4.0 Light rain.
2015-Jan-30 07:17 010 11 3.8 4.0 Light rain.
2015-Jan-30 06:00 040 14 4.3 4.0 Light rain.
2015-Jan-30 05:00 010 11 2.7 2.0 Light rain. Mist.
2015-Jan-30 04:48 020 12 2.7 2.0 Light rain. Mist.
2015-Jan-30 04:09 020 12 1.9 2.0 Light rain. Mist.
2015-Jan-30 04:00 360 9 1.9 1.0 Light rain. Mist.
2015-Jan-30 03:39 350 10 1.7 1.0 Rain. Mist.
2015-Jan-30 03:29 340 9 1.9 1.0 Light rain snow. Mist.
2015-Jan-30 03:00 340 11 1.6 1.0 Light rain snow. Mist.
2015-Jan-30 02:25 340 11 1.6 2.0 Light rain snow. Mist.
2015-Jan-30 02:20 340 10 1.6 2.0 Light rain snow. Mist.
2015-Jan-30 02:00 340 9 2.2 2.0 Light rain snow. Mist.
2015-Jan-30 01:00 360 9 2.2 2.0 Light rain snow. Mist.
2015-Jan-30 00:36 360 7 2.2 2.0 Light rain snow. Mist.
2015-Jan-30 00:00 360 8 2.2 1.0 Light rain. Mist.
2015-Jan-29 23:39 360 8 2.2 1.0 Light rain. Mist.
2015-Jan-29 23:24 360 8 2.2 1.0 Light rain snow. Mist.
2015-Jan-29 23:21 360 8 2.2 1.0 Light rain snow. Mist.
2015-Jan-29 23:05 360 8 2.2 1.0 Light rain snow. Mist.
2015-Jan-29 23:00 350 8 2.2 1.0 Light rain snow. Mist.
2015-Jan-29 22:29 350 8 2.2 1.0 Light rain snow. Mist.
2015-Jan-29 22:14 350 8 2.2 1.0 Light rain snow. Mist.
2015-Jan-29 22:07 340 8 2.7 1.0 Light rain snow. Mist.
2015-Jan-29 22:00 340 9 2.7 1.0 Light rain. Mist.
2015-Jan-29 21:36 340 9 3.8 1.0 Light rain.
2015-Jan-29 21:00 340 6 4.3 1.0 Light rain.
2015-Jan-29 20:00 010 3 4.3 1.0 Light rain.
2015-Jan-29 19:35 360 4 5.4 1.0 Light rain.
2015-Jan-29 19:00 340 3 5.4 1.0 Light rain.
2015-Jan-29 18:00 010 5 5.4 1.0 Light rain.
2015-Jan-29 17:00 010 4 5.4-0.0
2015-Jan-29 16:00 010 4 5.4-1.0
2015-Jan-29 15:00 020 4 5.4-1.0
2015-Jan-29 14:00 5.4-0.0
2015-Jan-29 13:00 5.4 1.0
2015-Jan-29 12:00 260 2 5.4-0.0
2015-Jan-29 11:00 5.4 1.0
2015-Jan-29 10:00 110 2 5.4 3.0
2015-Jan-29 09:00 130 2 5.4 4.0
2015-Jan-29 08:00 130 3 5.4 4.0
2015-Jan-29 07:19 130 5 5.4 4.0
2015-Jan-29 07:00 140 6 5.4 5.0
2015-Jan-29 06:00 5.4 6.0
2015-Jan-29 05:00 250 4 5.4 6.0